CW1172 Weather Reports


time (UTC)temp
C
wind
direction
speed
KPH
gust
KPH
rain 1hr
cm
rain 24hr
cm
rain mn
cm
humidity
%
barometer
mb
20260906094539 18 360 0.0 0.0 0.00 0.00 0.00 71 1016.4
20260906093038 18 304 0.0 0.0 0.00 0.00 0.00 72 1016.3
20260906090033 18 277 0.0 0.0 0.00 0.00 0.00 76 1016.0
20260906084532 17 224 0.0 0.0 0.00 0.00 0.00 75 1015.9
20260906083028 17 303 0.0 0.0 0.00 0.00 0.00 80 1015.7
20260906080032 16 287 0.0 0.0 0.00 0.00 0.00 86 1015.6
20260906074527 16 218 0.0 0.0 0.00 0.00 0.00 89 1015.4
20260906073022 15 210 0.0 0.0 0.00 0.00 0.00 92 1015.3
20260906070013 13 209 0.0 0.0 0.00 0.00 0.00 94 1014.8
20260906064512 13 131 0.0 0.0 0.00 0.00 0.00 95 1014.8
20260906063009 12 130 0.0 0.0 0.00 0.00 0.00 95 1014.7
20260906060059 10 130 0.0 0.0 0.00 0.00 0.00 95 1014.5
20260906054558 8 130 0.0 0.0 0.00 0.00 0.00 94 1014.3
20260906053056 8 129 0.0 0.0 0.00 0.00 0.00 94 1014.1
20260906051655 8 130 0.0 0.0 0.00 0.00 0.00 94 1013.9
20260906050056 8 130 0.0 0.0 0.00 0.00 0.00 94 1013.7
20260906044554 8 131 0.0 0.0 0.00 0.00 0.00 94 1013.7
20260906043053 8 130 0.0 0.0 0.00 0.00 0.00 94 1013.4
20260906041651 8 131 0.0 0.0 0.00 0.00 0.00 94 1013.0
20260906040050 8 131 0.0 0.0 0.00 0.00 0.00 94 1012.9
20260906034550 8 131 0.0 0.0 0.00 0.00 0.00 94 1012.8
20260906033052 8 130 0.0 0.0 0.00 0.00 0.00 94 1012.8
20260906031647 8 130 0.0 0.0 0.00 0.00 0.00 93 1012.5
20260906030045 8 130 0.0 0.0 0.00 0.00 0.00 93 1012.3
20260906024542 8 131 0.0 0.0 0.00 0.00 0.00 93 1012.1
20260906023041 8 130 0.0 0.0 0.00 0.00 0.00 93 1011.9
20260906021641 8 130 0.0 0.0 0.00 0.00 0.00 93 1011.8
20260906020040 8 130 0.0 0.0 0.00 0.00 0.00 93 1011.8
20260906014540 8 130 0.0 0.0 0.00 0.00 0.00 93 1011.7
20260906013038 8 112 0.0 0.0 0.00 0.00 0.00 93 1011.5
20260906011638 8 111 0.0 0.0 0.00 0.00 0.00 93 1011.2
20260906010036 8 113 0.0 0.0 0.00 0.00 0.00 93 1011.1
20260906004534 8 112 0.0 0.0 0.00 0.00 0.00 93 1011.0
20260906003033 8 111 0.0 0.0 0.00 0.00 0.00 93 1010.8
20260906001533 8 111 0.0 0.0 0.00 0.00 0.00 93 1010.6
20260906000031 8 264 0.0 0.0 0.00 0.00 0.00 93 1010.6
20260905234631 8 265 0.0 0.0 0.00 0.00 0.00 93 1010.5
20260905233030 8 263 0.0 0.0 0.00 0.00 0.00 93 1010.4
20260905231528 8 264 0.0 0.0 0.00 0.00 0.00 93 1010.2
20260905230029 8 264 0.0 0.0 0.00 0.00 0.00 92 1009.9
20260905224625 9 264 0.0 0.0 0.00 0.00 0.00 93 1009.8
20260905223023 9 263 0.0 0.0 0.00 0.00 0.00 92 1009.7
20260905221521 9 264 0.0 0.0 0.00 0.00 0.00 92 1009.5
20260905220019 9 264 0.0 0.0 0.00 0.00 0.00 92 1009.2
20260905214618 9 264 0.0 0.0 0.00 0.00 0.69 92 1008.9
20260905213017 10 263 0.0 0.0 0.00 0.00 0.69 92 1008.8
20260905211515 10 264 0.0 0.0 0.00 0.00 0.69 92 1008.6
20260905210012 10 263 0.0 0.0 0.00 0.00 0.69 91 1008.3
20260905204610 10 264 0.0 0.0 0.00 0.00 0.69 91 1008.0
20260905203008 10 263 0.0 0.0 0.00 0.00 0.69 91 1007.9
20260905201507 10 263 0.0 0.0 0.00 0.00 0.69 91 1007.7
20260905200004 10 263 0.0 0.0 0.00 0.00 0.69 91 1007.5
20260905194605 11 264 0.0 0.0 0.00 0.00 0.69 90 1007.1
20260905193005 11 265 0.0 0.0 0.00 0.00 0.69 90 1007.0
20260905191501 11 264 0.0 0.0 0.00 0.00 0.69 90 1006.6
20260905190100 11 264 0.0 0.0 0.00 0.00 0.69 89 1006.4
20260905184601 12 265 0.0 0.0 0.00 0.00 0.69 89 1005.9
20260905183059 12 360 0.0 0.0 0.00 0.00 0.69 89 1005.8
20260905181608 13 264 0.0 0.0 0.00 0.00 0.69 88 1005.5
20260905180052 13 263 0.0 0.0 0.00 0.00 0.69 88 1005.1
20260905174553 13 264 0.0 0.0 0.00 0.00 0.66 88 1004.5
20260905173047 13 360 0.0 0.0 0.00 0.00 0.66 88 1004.4
20260905171546 13 265 0.0 0.0 0.00 0.00 0.66 88 1004.0
20260905170044 13 264 0.0 0.0 0.00 0.00 0.66 87 1003.8
20260905164543 13 265 0.0 0.0 0.00 0.00 0.66 86 1003.5
20260905163044 14 360 0.0 0.0 0.00 0.00 0.66 86 1003.4
20260905161542 13 360 0.0 0.0 0.00 0.00 0.66 87 1003.2
20260905160108 13 360 0.0 0.0 0.00 0.00 0.66 86 1002.9
20260905154542 13 334 0.0 0.0 0.00 0.00 0.64 82 1002.7
20260905153037 14 334 0.0 0.0 0.00 0.00 0.61 80 1002.6
20260905151537 15 336 0.0 0.0 0.00 0.00 0.58 81 1002.3
20260905150035 16 218 0.0 0.0 0.00 0.00 0.58 80 1002.2
20260905144534 17 360 0.0 0.0 0.00 0.00 0.56 76 1001.9
20260905143036 17 215 0.0 0.0 0.00 0.00 0.56 75 1002.0
20260905141540 16 302 0.0 0.0 0.00 0.00 0.56 77 1001.8
20260905140036 17 21 0.0 0.0 0.00 0.00 0.56 73 1001.7
20260905134536 17 233 0.0 0.0 0.00 0.00 0.56 73 1001.5
20260905133034 17 237 0.0 0.0 0.00 0.00 0.56 72 1001.4
20260905131532 17 284 0.0 0.0 0.00 0.00 0.56 70 1001.4
20260905130031 17 130 0.0 0.0 0.00 0.00 0.56 73 1001.4
20260905124538 17 233 0.0 0.0 0.00 0.00 0.56 75 1001.1
20260905123027 17 226 0.0 0.0 0.00 0.00 0.56 72 1001.1
20260905121527 17 254 0.0 0.0 0.00 0.00 0.56 75 1001.0
20260905120027 18 248 0.0 0.0 0.00 0.00 0.56 73 1001.0
20260905114527 17 254 0.0 0.0 0.00 0.00 0.56 73 1000.9
20260905113026 18 241 0.0 0.0 0.00 0.00 0.56 73 1000.7
20260905111522 17 242 0.0 0.0 0.00 0.00 0.56 74 1000.8
20260905110021 17 254 0.0 0.0 0.00 0.00 0.56 75 1000.5
20260905104518 16 221 0.0 0.0 0.00 0.00 0.56 77 1000.4
20260905103024 15 294 0.0 0.0 0.00 0.00 0.56 78 1000.4
20260905101517 15 261 0.0 0.0 0.00 0.00 0.56 78 1000.2
20260905100014 16 234 0.0 0.0 0.00 0.00 0.56 80 1000.1